Location: Antin
(43.3330°N, 0.2804°E)
Time: 04:25:15
(UTC+00:00)

CSL-04 Debris - Pass Details

Date: 16 October 2021
Orbit: 827 x 847 km, 98.9° (Epoch: 02 December)

Event Time Altitude Azimuth Distance (km) Brightness Sun altitude
Exits shadow 19:08:38 29° 150° (SSE) 1,481 5.1 -21.6°
Maximum altitude 19:11:27 71° 73° (ENE) 876 4.0 -22.1°
Drops below altitude 10° 19:16:50 10° 350° (N) 2,446 6.8 -23.0°
Sets 19:19:13 0° 349° (NNW) 3,386 7.6 -23.5°
